Location: JKWMA (FRAC)
(33.1803°N, 84.5512°W)
Time: 22:59:07
(UTC-04:00)

Hubble Space Telescope - Pass Details

Date: 25 March 2019
Orbit: 536 x 540 km, 28.5° (Epoch: 13 October)

Event Time Altitude Azimuth Distance (km) Brightness Sun altitude
Rises 22:25:24 0° 256° (WSW) 2,674 5.0 -31.4°
Reaches altitude 10° 22:27:44 10° 249° (WSW) 1,784 3.9 -31.9°
Enters shadow 22:28:04 12° 248° (WSW) 1,660 3.7 -31.9°
